This demonstration page uses our WeatherBlox Daily Observations layout. Learn more.

Left ArrowRight Arrow

41.86663, -103.66717

Hourly Observations for May 20, 2021

Temp ( °F °C ) Dew Point ( °F °C ) Humidity (%) Winds ( mph kmh ) Pressure ( in mb ) Visibility ( mi km ) Precip ( " mm )
12:53 am 00:53 Clear 55 12.8 51 10.6 87 87 E 9 15 29.72 1007 10 16 0.00 0.00
1:53 am 01:53 Clear 54 12.2 50 10 87 87 ESE 9 15 29.71 1006 10 16 0.00 0.00
2:53 am 02:53 Clear 54 12.2 50 10 87 87 E 14 22 29.70 1006 10 16 0.00 0.00
3:53 am 03:53 Clear 52 11.1 49 9.4 89 89 ESE 8 13 29.70 1006 10 16 0.00 0.00
4:53 am 04:53 Clear 51 10.6 49 9.4 92 92 ESE 13 20 29.69 1005 7 11 0.00 0.00
5:24 am 05:24 Partly Cloudy with Mist and Fog 51 10.6 49 9.4 92 92 ESE 13 20 29.74 1007 6 10 0.00 0.00
5:32 am 05:32 Mostly Cloudy with Mist and Fog 52 11.1 49 9.4 89 89 ESE 15 24 29.73 1007 3 5 0.00 0.00
5:34 am 05:34 Mostly Cloudy with Mist and Fog 52 11.1 49 9.4 89 89 ESE 15 24 29.73 1007 2 2 0.00 0.00
5:40 am 05:40 Mostly Cloudy with Fog 51 10.6 49 9.4 92 92 ESE 15 24 29.74 1007 0 0 0.00 0.00
5:53 am 05:53 Mostly Cloudy with Fog 52 11.1 50 10 93 93 ESE 16 26 29.68 1005 0 0 0.00 0.00
6:09 am 06:09 Mostly Cloudy with Fog 52 11.1 50 10 93 93 ESE 15 24 29.74 1007 1 1 0.00 0.00
6:17 am 06:17 Mostly Cloudy with Fog 52 11.1 50 10 93 93 ESE 15 24 29.74 1007 0 0 0.00 0.00
6:41 am 06:41 Mostly Cloudy with Fog 52 11 50 10 94 94 ESE 13 20 29.74 1007 1 1 0.00 0.00
6:51 am 06:51 Cloudy with Mist and Fog 54 12 52 11 94 94 ESE 13 20 29.73 1007 2 3 0.00 0.00
6:53 am 06:53 Cloudy with Mist and Fog 53 11.7 51 10.6 93 93 ESE 12 19 29.70 1006 2 3 0.00 0.00
7:04 am 07:04 Cloudy with Mist and Fog 54 12 52 11 94 94 ESE 13 20 29.74 1007 3 5 0.00 0.00
7:53 am 07:53 Cloudy 55 12.8 51 10.6 87 87 ESE 13 20 29.71 1006 7 11 0.00 0.00
8:22 am 08:22 Partly Cloudy 57 14 52 11 82 82 ESE 12 19 29.71 1006 10 16 0.00 0.00
8:53 am 08:53 Sunny 61 16.1 52 11.1 72 72 ESE 14 22 29.70 1006 10 16 0.00 0.00
10:53 am 10:53 Sunny 72 22.2 53 11.7 52 52 SE 13 20 29.65 1004 10 16 0.00 0.00
11:53 am 11:53 Sunny 77 25 51 10.6 40 40 SE 15 24 29.63 1003 10 16 0.00 0.00
12:53 pm 12:53 Sunny 81 27.2 49 9.4 33 33 SSE 20 31 29.60 1003 10 16 0.00 0.00
1:53 pm 13:53 Sunny 83 28.3 48 8.9 30 30 SE 22 35 29.57 1002 10 16 0.00 0.00
2:53 pm 14:53 Sunny 83 28.3 49 9.4 31 31 SE 21 33 29.56 1001 10 16 0.00 0.00
3:53 pm 15:53 Sunny 83 28.3 49 9.4 31 31 SE 22 35 29.55 1001 10 16 0.00 0.00
4:53 pm 16:53 Sunny 83 28.3 49 9.4 31 31 SE 22 35 29.55 1001 10 16 0.00 0.00
5:53 pm 17:53 Sunny 80 26.7 53 11.7 39 39 SE 23 37 29.55 1001 10 16 0.00 0.00
6:53 pm 18:53 Sunny 77 25 53 11.7 43 43 SE 18 30 29.57 1001 10 16 0.00 0.00
7:53 pm 19:53 Cloudy with Light Rain 74 23.3 44 6.7 34 34 S 32 52 29.56 1001 9 14 0.00 0.00
8:53 pm 20:53 Clear 70 21.1 42 5.6 37 37 SE 13 20 29.60 1002 10 16 0.00 0.00
9:53 pm 21:53 Clear 66 18.9 44 6.7 45 45 ESE 14 22 29.62 1003 10 16 0.00 0.00
10:53 pm 22:53 Clear 67 19.4 50 10 55 55 SE 16 26 29.60 1003 10 16 0.00 0.00
11:53 pm 23:53 Clear 66 18.9 57 13.9 73 73 ESE 23 37 29.60 1003 10 16 0.00 0.00

Powered by AerisWeather